Regional Weather Roundup
Issued by NWS

Home | Current Version | Previous Version | Text Only | Print | Product List | Glossary Off
Versions: 1 2 3 4 5 6 7 8 9 10 11 12 13 14 15 16 17 18 19 20 21 22 23 24 25 26 27 28 29 30 31 32 33 34 35 36 37 38 39 40 41 42 43 44 45 46 47 48 49 50

000
ASUS43 KTOP 031708
RWRKS

WEATHER ROUNDUP FOR KANSAS
NATIONAL WEATHER SERVICE GOODLAND KS
1200 PM CDT TUE MAY 03 2016

NOTE:  "FAIR" INDICATES FEW OR NO CLOUDS BELOW 12,000 FEET WITH NO
SIGNIFICANT WEATHER AND/OR OBSTRUCTIONS TO VISIBILITY.

KSZ001>006-013>018-027>032-041>047-031800-
NORTHWEST KANSAS

CITY           SKY/WX    TMP DP  RH WIND       PRES   REMARKS
GOODLAND       PTSUNNY   56  39  53 N15       30.13R
HAYS           MOSUNNY   63  41  45 N8        30.08R
HILL CITY      SUNNY     61  43  51 VRB6      30.10R
RUSSELL        SUNNY     64  42  44 CALM      30.05R
$$

KSZ061>065-074>080-084>089-031800-
SOUTHWEST KANSAS

CITY           SKY/WX    TMP DP  RH WIND       PRES   REMARKS
DODGE CITY     MOSUNNY   63  38  39 N16       30.08R
ELKHART          N/A     63  35  35 N9          N/A
GARDEN CITY    SUNNY     61  39  44 N12       30.10R
GREAT BEND     SUNNY     63  43  48 W7        30.06S
LIBERAL        SUNNY     64  43  45 N18G24    30.10S
PRATT          CLOUDY    60  41  49 SW6       30.08R
$$

KSZ066>073-081>083-090>101-031800-
SOUTHEAST KANSAS

CITY           SKY/WX    TMP DP  RH WIND       PRES   REMARKS
CHANUTE        SUNNY     66  41  40 VRB3      30.10F
COFFEYVILLE    SUNNY     64  43  46 CALM      30.11F
HUTCHINSON     SUNNY     68  44  42 SW9       30.06F
MEDICINE LODGE   N/A     67  41  38 VRB5      30.07S
NEWTON         SUNNY     64  41  42 S10       30.10S
PARSONS        SUNNY     64  44  48 S3        30.11F
WICHITA INTL   MOSUNNY   65  47  52 VRB5      30.08S
WICHITA JABRA  SUNNY     65  42  43 VRB3      30.08S
WICHITA MCCONL SUNNY     64  44  48 VRB5      30.09S
WINFIELD       SUNNY     66  45  46 SW7G17    30.25R
$$

KSZ007>012-019>026-033>040-048>060-102>105-031800-
NORTHEAST KANSAS

CITY           SKY/WX    TMP DP  RH WIND       PRES   REMARKS
CONCORDIA      SUNNY     65  41  41 E9        30.05S
EMPORIA        SUNNY     65  42  43 S6        30.08F
LAWRENCE       SUNNY     64  41  42 CALM      30.08F
MANHATTAN      SUNNY     67  42  40 S7        30.06F
MARYSVILLE     SUNNY     63  41  45 NW5       30.07S
OLATHE IND     SUNNY     63  40  42 W6        30.09F
OLATHE EXE     MOSUNNY   63  39  41 CALM      30.08F
SALINA         SUNNY     66  46  48 SW9       30.06R
TOPEKA BILLARD MOSUNNY   65  42  43 W7        30.07F
TOPEKA FORBES  SUNNY     66  41  40 VRB6      30.07F
$$




USA.gov is the U.S. government's official web portal to all federal, state and local government web resources and services.